Regional Weather Roundup
Issued by NWS Jackson, KY

Home | Current Version | Previous Version | Graphics & Text | Print | Product List | Glossary On
Versions: 1 2 3 4 5 6 7 8 9 10 11 12 13 14 15 16 17 18 19 20 21 22 23 24 25 26 27 28
000
ASUS43 KJKL 180710
RWRJKL

EAST KENTUCKY HOURLY WEATHER ROUNDUP
NATIONAL WEATHER SERVICE JACKSON KY
200 AM EST THU JAN 18 2018

NOTE: "FAIR" INDICATES FEW OR NO CLOUDS BELOW 12,000 FEET WITH
NO SIGNIFICANT WEATHER AND/OR OBSTRUCTIONS TO VISIBILITY.

* THESE REPORTS ARE NOT UNDER NWS QUALITY CONTROL AND MAY NOT
  REPORT WEATHER SUCH AS PRECIPITATION AND FOG.

KYZ079-080-083-085-087-088-110-112-115-119-120-180800
...EASTERN KENTUCKY...

CITY           SKY/WX    TMP DP  RH WIND       PRES   REMARKS
JACKSON        MOCLDY     9   5  84 SW5       30.41F WCI   1
LONDON           N/A      3   0  87 CALM      30.44F
SOMERSET*      MOCLDY     3   1  92 CALM      30.49F
MONTICELLO*      N/A     -4  -8  83 W8        30.51  WCI -19
WILLIAMSBURG*    N/A      5   3  92 MISG      30.46S
MIDDLESBORO*     N/A      8   6  91 CALM      30.46F
HARLAN APT*    CLOUDY    10   7  85 CALM      30.42S
PIKE CO APT*   CLOUDY     9   6  88 CALM      30.40S
BIG SANDY APT* FLURRIES  10   7  86 SW5       30.42F WCI   2
MOREHEAD APT*    N/A      9   3  78 SW9       30.45S WCI  -5
ASHLAND*         N/A      4   0  83 CALM      30.47F
$$

KYZ035-036-041-042-044-050-067-078-099-180800
...CENTRAL KENTUCKY...

CITY           SKY/WX    TMP DP  RH WIND       PRES   REMARKS
MT STERLING*     N/A      7   5  92 SW7       30.45F WCI  -5
FLEMING/MASON*   N/A      6   3  90 CALM      30.44S
DANVILLE*        N/A      5   3  92 S5        30.46F WCI  -4
LEXINGTON        N/A      7   2  80 SW6       30.45S WCI  -3
FRANKFORT        N/A      8   3  80 CALM      30.44F
LOUISVILLE       N/A     14   7  73 SW6       30.47F WCI   5
GLASGOW*         N/A      1  -1  88 CALM      30.50F FOG
BOWLING GREEN    N/A      8   4  83 SW6       30.53F WCI  -2
$$

KYZ091>093-OHZ055-061-077-WVZ005-015-034-035-042-180800
...SOUTHERN OHIO/WEST VIRGINIA...

CITY           SKY/WX    TMP DP  RH WIND       PRES   REMARKS
COVINGTON        N/A     11   8  88 SW8       30.39F WCI  -1
COLUMBUS       CLOUDY    10   6  84 S7        30.34F WCI  -1
DAYTON           N/A     12   7  80 SW15      30.33F WCI  -4
WILMINGTON       N/A     10   8  92 SW13      30.34F WCI  -5
HUNTINGTON       N/A      7   2  80 S3        30.43F
CHARLESTON       N/A     10   4  76 SW8       30.42F WCI  -2
BECKLEY        CLOUDY     6   3  87 W8        30.26F WCI  -7
BLUEFIELD      LGT SNOW   5   1  83 NW8       30.23F FOG     WCI  -8
LOGAN CO APT*  CLOUDY     9   5  85 CALM      30.36F
$$

VAZ002-007-008-TNZ017-027-036-066-071-180800
...SOUTHWEST VIRGINIA/EAST TENNESSEE...

CITY           SKY/WX    TMP DP  RH WIND       PRES   REMARKS
WISE*          MOCLDY     7   5  92 CALM      30.29F
JONESVILLE*      N/A      5   1  85 CALM      30.45S
ABINGDON*      FLURRIES  10   5  79 W6        30.34S WCI   1
BRISTOL          N/A      6   3  87 CALM      30.41S
MORRISTOWN*    SUNNY      9   5  85 CALM      30.43F
SEVIERVILLE*   SUNNY      5   3  92 CALM      30.47F
KNOXVILLE        N/A     11   7  84 N5        30.46F WCI   3
LAFOLLETTE*    CLOUDY    12   9  85 CALM      30.49F
OAK RIDGE        N/A      8   5  87 CALM      30.49S
CROSSVILLE       N/A      8   5  87 N3        30.40S
NASHVILLE        N/A     10   6  84 S3        30.55F
$$

...KEY TO REMARKS...
VSB - VISIBILITY IN MILES
WCI - WIND CHILL INDEX
HX  - HEAT INDEX

$$




USA.gov is the U.S. government's official web portal to all federal, state and local government web resources and services.